Location: Pedholt
(56.0260°N, 10.2097°E)
Time: 02:29:43
(UTC+00:00)

Transit 2A Rocket - Pass Details

Date: 28 July 2021
Orbit: 586 x 916 km, 66.7° (Epoch: 21 September)

Event Time Altitude Azimuth Distance (km) Brightness Sun altitude
Rises 16:42:30 0° 256° (WSW) 2,925 9.3 21.5°
Reaches altitude 10° 16:44:51 10° 265° (W) 2,060 9.3 21.2°
Maximum altitude 16:49:11 37° 333° (NNW) 1,068 6.4 20.6°
Drops below altitude 10° 16:53:56 10° 41° (NE) 2,257 7.2 19.9°
Sets 16:56:37 0° 50° (NE) 3,244 7.8 19.5°
